TimeMDT,TemperatureF,Dew PointF,Humidity,Sea Level PressureIn,VisibilityMPH,Wind Direction,Wind SpeedMPH,Gust SpeedMPH,PrecipitationIn,Events,Conditions,WindDirDegrees,DateUTC
12:53 AM,69.1,48.0,47,29.90,10.0,South,8.1,-,N/A,,Clear,190,2013-08-23 06:53:00
1:53 AM,64.9,52.0,63,29.90,10.0,Calm,Calm,-,N/A,,Partly Cloudy,0,2013-08-23 07:53:00
2:53 AM,69.1,48.0,47,29.88,10.0,SE,9.2,-,N/A,,Overcast,130,2013-08-23 08:53:00
3:53 AM,69.1,48.0,47,29.88,10.0,SSW,4.6,-,N/A,,Mostly Cloudy,210,2013-08-23 09:53:00
4:53 AM,64.0,53.1,67,29.91,10.0,WSW,4.6,-,N/A,,Overcast,250,2013-08-23 10:53:00
5:53 AM,61.0,53.1,75,29.98,10.0,SSW,10.4,19.6,0.00,Rain,Light Rain,210,2013-08-23 11:53:00
6:53 AM,60.1,55.9,86,29.97,10.0,Calm,Calm,-,0.06,Rain,Light Rain,0,2013-08-23 12:53:00
7:53 AM,60.1,57.0,90,29.97,10.0,NE,4.6,-,0.00,,Mostly Cloudy,50,2013-08-23 13:53:00
8:53 AM,61.0,57.0,87,29.98,10.0,NE,5.8,-,N/A,,Mostly Cloudy,40,2013-08-23 14:53:00
9:53 AM,59.0,57.0,93,30.02,4.0,SW,11.5,-,0.04,Rain,Rain,220,2013-08-23 15:53:00
10:39 AM,59.0,57.2,94,30.20,2.5,Calm,Calm,-,0.16,Rain,Rain,0,2013-08-23 16:39:00
10:53 AM,59.0,57.0,93,30.01,2.5,NW,5.8,-,0.20,Rain,Rain,320,2013-08-23 16:53:00
11:01 AM,59.0,57.2,94,30.20,4.0,SW,3.5,-,0.01,Rain,Light Rain,220,2013-08-23 17:01:00
11:53 AM,61.0,59.0,93,30.01,10.0,NNW,3.5,-,0.01,,Overcast,330,2013-08-23 17:53:00
12:51 PM,60.8,57.2,88,30.19,10.0,Calm,Calm,-,0.00,Rain,Light Rain,0,2013-08-23 18:51:00
12:53 PM,61.0,57.9,90,30.01,10.0,Calm,Calm,-,0.00,Rain,Light Rain,0,2013-08-23 18:53:00
1:24 PM,60.8,57.2,88,30.19,10.0,Calm,Calm,-,0.00,Rain,Light Rain,0,2013-08-23 19:24:00
1:53 PM,63.0,57.0,81,30.00,10.0,North,3.5,-,0.00,,Overcast,360,2013-08-23 19:53:00
2:53 PM,64.9,57.0,75,29.96,10.0,Calm,Calm,-,0.00,,Overcast,0,2013-08-23 20:53:00
3:53 PM,70.0,57.9,65,29.89,10.0,Calm,Calm,-,N/A,,Mostly Cloudy,0,2013-08-23 21:53:00
4:53 PM,69.1,55.0,61,29.91,10.0,WNW,5.8,-,N/A,,Scattered Clouds,290,2013-08-23 22:53:00
5:53 PM,72.0,54.0,53,29.90,10.0,Variable,3.5,-,N/A,,Partly Cloudy,0,2013-08-23 23:53:00
6:53 PM,70.0,54.0,57,29.89,10.0,North,5.8,-,N/A,,Clear,360,2013-08-24 00:53:00
7:53 PM,66.0,55.9,70,29.89,10.0,North,4.6,-,N/A,,Clear,10,2013-08-24 01:53:00
8:53 PM,63.0,55.0,75,29.90,10.0,NE,4.6,-,N/A,,Clear,40,2013-08-24 02:53:00
9:53 PM,63.0,55.0,75,29.94,10.0,Calm,Calm,-,N/A,,Clear,0,2013-08-24 03:53:00
10:53 PM,61.0,51.1,70,29.95,10.0,Calm,Calm,-,N/A,,Clear,0,2013-08-24 04:53:00
11:53 PM,60.1,51.1,72,29.95,10.0,SE,4.6,-,N/A,,Clear,130,2013-08-24 05:53:00